This is the latest recevied weather packets stored in our database for station/object KU9TRY. If no packets are shown the sender has not sent any weather packets the latest 10 day(s).
| Time | Temp. | Humidity | Pressure | Rain* | Wind** | Luminosity | Snow |
|---|---|---|---|---|---|---|---|
| 1788135678 | 27.22° C | 73% | 1018.3 hPa | 0 mm | - | 1 W/m² | - |
| 1788135373 | 27.22° C | 73% | 1018.2 hPa | 0 mm | - | 2 W/m² | - |
| 1788135069 | 27.22° C | 72% | 1018.4 hPa | 0 mm | - | 3 W/m² | - |
| 1788134766 | 27.78° C | 70% | 1018.3 hPa | 0 mm | - | 5 W/m² | - |
| 1788134465 | 27.78° C | 70% | 1018.3 hPa | 0 mm | - | 6 W/m² | - |
| 1788134164 | 27.78° C | 70% | 1018.2 hPa | 0 mm | - | 8 W/m² | - |
| 1788133860 | 27.78° C | 69% | 1018.4 hPa | 0 mm | - | 10 W/m² | - |
| 1788133560 | 28.33° C | 69% | 1018.4 hPa | 0 mm | - | 11 W/m² | - |
| 1788133256 | 28.33° C | 69% | 1018.3 hPa | 0 mm | - | 14 W/m² | - |
| 1788132956 | 28.33° C | 68% | 1018.4 hPa | 0 mm | - | 16 W/m² | - |
| 1788132652 | 28.89° C | 67% | 1018.3 hPa | 0 mm | - | 20 W/m² | - |
| 1788132348 | 28.89° C | 67% | 1018.5 hPa | 0 mm | - | 20 W/m² | - |
| 1788132043 | 28.89° C | 65% | 1018.1 hPa | 0 mm | - | 21 W/m² | - |
| 1788131739 | 28.89° C | 65% | 1018.2 hPa | 0 mm | - | 23 W/m² | - |
| 1788131438 | 28.89° C | 65% | 1018.3 hPa | 0 mm | - | 26 W/m² | - |
| 1788131134 | 29.44° C | 64% | 1018.3 hPa | 0 mm | - | 27 W/m² | - |
| 1788130829 | 29.44° C | 64% | 1018.3 hPa | 0 mm | - | 28 W/m² | - |
| 1788130524 | 29.44° C | 63% | 1018.1 hPa | 0 mm | - | 30 W/m² | - |
| 1788130223 | 29.44° C | 63% | 1018.4 hPa | 0 mm | - | 31 W/m² | - |
| 1788129922 | 30° C | 62% | 1018.2 hPa | 0 mm | - | 31 W/m² | - |
| 1788129619 | 30° C | 61% | 1018.3 hPa | 0 mm | - | 32 W/m² | - |
| 1788129316 | 30.56° C | 59% | 1018.2 hPa | 0 mm | - | 34 W/m² | - |
| 1788129015 | 30.56° C | 57% | 1018.2 hPa | 0 mm | - | 36 W/m² | - |
| 1788128710 | 30.56° C | 58% | 1018.2 hPa | 0 mm | - | 40 W/m² | - |
| 1788128406 | 30.56° C | 55% | 1018.2 hPa | 0 mm | - | 50 W/m² | - |
* Rain latest hour (hover to see other rain measurements)
** Current wind speed in m/s (hover to see current wind gust speed)